User: anonymous   Login
Location: Unspecified
(0.0000°N, 0.0000°E)
Time: 19:43:48
(UTC+00:00)
Language:

Explorer 22 - Orbit

View from above orbital plane
View from above orbital plane
View from above satellite
View from above satellite

Ground track
Ground track

The orbit data is extracted from the following two-line orbital elements,

1   899U 64064A   18346.29953917  .00000096  00000-0  77828-4 0  9994
2   899  79.6916 246.4092 0121354  52.8798 308.3366 13.82082183726266
Epoch (UTC): 12 December 2018 07:11:20
Eccentricity: 0.0121354
inclination: 79.6916°
perigee height: 867 km
apogee height: 1045 km
right ascension of ascending node: 246.4092°
argument of perigee: 52.8798°
revolutions per day: 13.82082183
mean anomaly at epoch: 308.3366°
orbit number at epoch: 72626

The dashed part of the orbit path shows where the satellite is in the earth's shadow,  

DLR